{"data":{"norad_id":68340,"intl_designator":"2026-059V","name":"STARLINK-37185","alt_names":[],"object_type":"PAYLOAD","status":"ACTIVE","operator":null,"country":"US","launch_date":"2026-03-22","launch_site_code":"AFETR","launch_vehicle":null,"mission":null,"orbit_class":"UNKNOWN","rcs_meters":null,"size_class":null,"mass_kg":null,"dimensions":null,"purposes":["comms"],"wikipedia_slug":null,"has_3d_model":false,"image_url":null,"decayed_at":null,"tle_current":{"epoch":"2026-09-20T04:44:12.456096Z","epoch_age_seconds":73296,"freshness":"FRESH","line1":"1 68340U 26059V   26263.19736639  .00011205  00000+0  34218-3 0  9995","line2":"2 68340  53.1555 157.1111 0001398  95.0703 265.0460 15.34407688 28064","mean_motion":15.34407688,"eccentricity":0.0001398,"inclination_deg":53.1555,"raan_deg":157.1111,"arg_perigee_deg":95.0703,"mean_anomaly_deg":265.046,"bstar":0.00034218,"rev_number":2806,"period_min":93.8472878663,"perigee_km":461.72404367523,"apogee_km":463.63673621746,"semimajor_km":6840.8173899463,"source":"CELESTRAK","updated_at":"2026-09-20T09:00:43.888484Z"}}}